"Pseudo-MPEC" for P10Nyut

Created 2019 Jun 20 19:07:15 UT using Find_Orb

Click here for an explanation of pseudo-MPECs

 
 Astrometry: 
     P10Nyut  C2019 05 07,fqkDpBCi/rE5`)rGU8@`Astrometrym^J#Seis/redacted;u:ZF51
     P10Nyut  C2019 05 07@8P=Ws,fk,!+5tREfr_Y0c]dOL78!QclicksBjI_GwEgBQCNAqZ@F51
     P10Nyut  C2019 05 07]S%==h'q?dhere[J]#:`;]b]m.hwhfor.4ugQ9explanation0+@F51
     P10Nyut  C2019 05 09.32774 14 56 36.26 -07 50 17.4    ~59E9 20.8 GVNEOCPI52
     P10Nyut  C2019 05 09.32871 14 56 37.42 -07 50 04.6    ~59E9 20.9 GVNEOCPI52
     P10Nyut  C2019 05 09.33065 14 56 39.81 -07 49 37.7    ~59E9 20.9 GVNEOCPI52

Station data:
(F51) Pan-STARRS 1, Haleakala  (N20.707235 W156.255910)  US/Hawaii.
   Observers N. Primak, A. Schultz, S. Watters, J. Thiel, T. Goggia. Measurer
   PS1 Science Consortium. 1.8-m Ritchey-Chrétien + CCD.
(I52) Steward Observatory, Mt. Lemmon Station  (N32.442547 W110.788920)
   US/Arizona.  Observers T. A. Pruyne, B. M. Africano, E. J. Christensen, G.
   A. Farneth, D. C. Fuls, A. R. Gibbs, A. D. Grauer, H. Groeller, J. A.
   Johnson, R. A. Kowalski, S. M. Larson, G. J. Leonard, R. L. Seaman, F. C.
   Shelly. 1.0-m reflector + CCD.

Orbital elements:  P10Nyut
   Perihelion 2019 May 1.679347 +/- 1.3 TT = 16:18:15 (JD 2458605.179347)
Epoch 2019 May  9.0 TT = JDT 2458612.5   Earth MOID: 0.0272   AutoNEOCP
M   3.76175857 +/- 0.9              (J2000 ecliptic)
n   0.51385563 +/- 0.0398           Peri.  353.68784 +/- 1.3
a   1.54374405 +/- 0.0797           Node   226.13159 +/- 0.021
e   0.3297756 +/- 0.0328            Incl.    7.02597 +/- 0.49
P   1.92/700.57d           H 28.1   G  0.15   U 10.6  
q 1.03465491 +/- 0.00283    Q 2.05283319 +/- 0.158
From 6 observations 2019 May 7-9 (46.3 hr); mean residual 1".57
Residuals in arcseconds: 
190507 F51  .16-  .21+    190507 F51  .09+  .17-    190509 I52  .14+  1.0-    
190507 F51  .07+  .03-    190509 I52  1.6+  2.8-    190509 I52  1.7-  3.9+    

Ephemerides (geocentric):
Date (UTC) HH   RA              Dec         delta   r     elong  mag " sig PA
---- -- -- --  -------------   -----------  ------ ------ -----  --- ---- ---
2019 06 20 19  18 38 58.420   +15 54 40.20  .15454 1.1377 139.2 25.7 4867  65
2019 06 20 20  18 38 58.993   +15 54 09.92  .15469 1.1379 139.2 25.7 4867  65
2019 06 20 21  18 38 59.562   +15 53 39.58  .15484 1.1380 139.3 25.7 4867  65
2019 06 20 22  18 39 00.128   +15 53 09.19  .15500 1.1382 139.3 25.8 4868  65
2019 06 20 23  18 39 00.691   +15 52 38.74  .15515 1.1383 139.3 25.8 4868  65
2019 06 21 00  18 39 01.250   +15 52 08.22  .15530 1.1385 139.3 25.8 4869  65
2019 06 21 01  18 39 01.805   +15 51 37.65  .15545 1.1386 139.3 25.8 4869  65
2019 06 21 02  18 39 02.357   +15 51 07.02  .15561 1.1388 139.4 25.8 4869  65
2019 06 21 03  18 39 02.905   +15 50 36.34  .15576 1.1390 139.4 25.8 4870  65
2019 06 21 04  18 39 03.450   +15 50 05.59  .15591 1.1391 139.4 25.8 4870  65
2019 06 21 05  18 39 03.991   +15 49 34.79  .15607 1.1393 139.4 25.8 4870  65
2019 06 21 06  18 39 04.529   +15 49 03.93  .15622 1.1394 139.4 25.8 4871  65
2019 06 21 07  18 39 05.064   +15 48 33.01  .15637 1.1396 139.4 25.8 4871  65
2019 06 21 08  18 39 05.595   +15 48 02.03  .15652 1.1397 139.5 25.8 4872  65
2019 06 21 09  18 39 06.122   +15 47 31.00  .15668 1.1399 139.5 25.8 4872  65
2019 06 21 10  18 39 06.647   +15 46 59.91  .15683 1.1400 139.5 25.8 4872  65
2019 06 21 11  18 39 07.167   +15 46 28.76  .15698 1.1402 139.5 25.8 4873  65
2019 06 21 12  18 39 07.685   +15 45 57.55  .15714 1.1404 139.5 25.8 4873  65
2019 06 21 13  18 39 08.199   +15 45 26.29  .15729 1.1405 139.6 25.8 4873  65
2019 06 21 14  18 39 08.710   +15 44 54.97  .15744 1.1407 139.6 25.8 4874  65
2019 06 21 15  18 39 09.217   +15 44 23.59  .15760 1.1408 139.6 25.8 4874  65
2019 06 21 16  18 39 09.721   +15 43 52.15  .15775 1.1410 139.6 25.8 4874  65
2019 06 21 17  18 39 10.222   +15 43 20.66  .15790 1.1411 139.6 25.8 4875  65
2019 06 21 18  18 39 10.720   +15 42 49.11  .15806 1.1413 139.7 25.8 4875  65
2019 06 21 19  18 39 11.214   +15 42 17.50  .15821 1.1415 139.7 25.8 4875  65
2019 06 21 20  18 39 11.705   +15 41 45.84  .15836 1.1416 139.7 25.8 4876  65
2019 06 21 21  18 39 12.193   +15 41 14.12  .15852 1.1418 139.7 25.8 4876  65
2019 06 21 22  18 39 12.678   +15 40 42.35  .15867 1.1419 139.7 25.8 4876  65
2019 06 21 23  18 39 13.159   +15 40 10.51  .15882 1.1421 139.7 25.8 4877  65
2019 06 22 00  18 39 13.637   +15 39 38.62  .15898 1.1422 139.8 25.8 4877  65
2019 06 22 01  18 39 14.112   +15 39 06.68  .15913 1.1424 139.8 25.8 4877  65
2019 06 22 02  18 39 14.584   +15 38 34.67  .15929 1.1426 139.8 25.8 4878  65
2019 06 22 03  18 39 15.053   +15 38 02.62  .15944 1.1427 139.8 25.8 4878  65
2019 06 22 04  18 39 15.519   +15 37 30.50  .15959 1.1429 139.8 25.8 4878  65
2019 06 22 05  18 39 15.981   +15 36 58.33  .15975 1.1430 139.9 25.8 4879  65
2019 06 22 06  18 39 16.441   +15 36 26.10  .15990 1.1432 139.9 25.8 4879  65
2019 06 22 07  18 39 16.897   +15 35 53.82  .16006 1.1434 139.9 25.8 4879  65
2019 06 22 08  18 39 17.350   +15 35 21.48  .16021 1.1435 139.9 25.8 4880  65
2019 06 22 09  18 39 17.800   +15 34 49.09  .16037 1.1437 139.9 25.8 4880  65
2019 06 22 10  18 39 18.247   +15 34 16.64  .16052 1.1438 139.9 25.8 4880  65
2019 06 22 11  18 39 18.691   +15 33 44.13  .16068 1.1440 140.0 25.8 4881  65
2019 06 22 12  18 39 19.132   +15 33 11.57  .16083 1.1441 140.0 25.8 4881  65
2019 06 22 13  18 39 19.570   +15 32 38.95  .16098 1.1443 140.0 25.8 4881  65
2019 06 22 14  18 39 20.005   +15 32 06.28  .16114 1.1445 140.0 25.8 4881  65
2019 06 22 15  18 39 20.437   +15 31 33.55  .16129 1.1446 140.0 25.8 4882  65
2019 06 22 16  18 39 20.867   +15 31 00.77  .16145 1.1448 140.0 25.8 4882  65
2019 06 22 17  18 39 21.293   +15 30 27.93  .16160 1.1449 140.1 25.8 4882  65
2019 06 22 18  18 39 21.716   +15 29 55.04  .16176 1.1451 140.1 25.8 4883  65